Flag for U.S.A. Weather past 2 weeks in Alexandria, Virginia, U.S.A.

Now
46 °F

Clear.


Feels Like: 41 °F
Forecast: 42 / 65 °F
Wind: 9 mph from Northwest

Location: Reagan National Airport


UV Index: 5 (Moderate)

Visibility: 10 mi


Pressure: 30.07 "Hg

Humidity: 42%

Dew point: 24 °F

Location of AlexandriaLocation

Historic Weather in Alexandria

°F

Alexandria temperature yesterday

Maximum temperature yesterday: 61 °F (at 1:52 PM)
Minimum temperature yesterday: 50 °F (at 10:52 PM)
Average temperature yesterday: 56 °F

Past Weeks' High & Low Weather Summary

 TemperatureHumidityPressure
High85 °F (Apr 13, 3:52 PM)88% (Apr 15, 9:56 AM)30.66 "Hg (Apr 15, 9:56 AM)
Low34 °F (Apr 16, 3:52 AM)19% (Apr 12, 2:52 PM)29.55 "Hg (Apr 15, 12:52 PM)
Average58 °F51%30.10 "Hg
* Reported Apr 9 5:52 AM — Apr 24 5:52 AM, Alexandria, Weather by CustomWeather, © 2014

Note: Actual official high and low records may vary slightly from our data, if they occured in-between our weather recording intervals... More about our weather records

Advertising

Historic Weather Conditions — Data for Previous 24 hours

 ConditionsComfort  
Time TempWeatherWind HumidityBarometerVisibility
5:52 AM
Apr 24
46 °FClear.9 mph42%30.07 "Hg10 mi
4:52 AM47 °FClear.12 mph42%30.06 "Hg10 mi
3:52 AM47 °FClear.9 mph46%30.03 "Hg10 mi
2:52 AM48 °FClear.9 mph46%30.02 "Hg10 mi
1:52 AM49 °FClear.9 mph46%30.02 "Hg10 mi
12:52 AM49 °FClear.9 mph46%30.01 "Hg10 mi
11:52 PM
Apr 23
50 °FClear.9 mph46%30.00 "Hg10 mi
10:52 PM50 °FClear.13 mph48%30.00 "Hg10 mi
9:52 PM52 °FClear.16 mph47%29.98 "Hg10 mi
8:52 PM54 °FPassing clouds.14 mph43%29.94 "Hg10 mi
7:52 PM55 °FPassing clouds.16 mph42%29.89 "Hg10 mi
6:52 PM57 °FPassing clouds.20 mph41%29.88 "Hg10 mi
5:52 PM58 °FScattered clouds.21 mph41%29.87 "Hg10 mi
4:52 PM60 °FScattered clouds.20 mph39%29.85 "Hg10 mi
3:52 PM60 °FScattered clouds.20 mph39%29.84 "Hg10 mi
2:52 PM60 °FScattered clouds.21 mph41%29.83 "Hg10 mi
1:52 PM61 °FScattered clouds.20 mph39%29.83 "Hg10 mi
12:52 PM59 °FScattered clouds.23 mph41%29.83 "Hg10 mi
11:52 AM57 °FScattered clouds.21 mph42%29.83 "Hg10 mi
10:52 AM54 °FPartly sunny.20 mph43%29.83 "Hg10 mi
9:52 AM55 °FPartly sunny.24 mph42%29.83 "Hg10 mi
8:52 AM53 °FScattered clouds.22 mph47%29.81 "Hg10 mi
7:52 AM53 °FScattered clouds.15 mph47%29.78 "Hg10 mi
6:52 AM51 °FPassing clouds.13 mph52%29.77 "Hg10 mi
Weather by CustomWeather, © 2014

See weather overview